x

9442396 - La Push, Wa (lapw1) Weather Station

12:30pm - Thu 20th Nov 2014 All times are PST. -8 hours from GMT.

  • Wind
    6mph, 15mph gusts
  • Sea Temp 51°f
  • 空気 Temp 51°f
  • Sea Pressure 1012.3mb
  • 9442396 - La Push, Wa
  • 9442396 - La Push, Wa

More Historic Weather Station data

Upgrade to MSW Pro to gain access to the past 30 days of data for over 8000 Wavebouys and Weather Stations around the globe.

Join Pro

Comparision Forecast

View Surf forecast
   
Thu 11/20 12:30pm 6 15 mph 1012.3mb 51f 51f
12:24pm 9 13 mph 1012.4mb 51f 51f
12:18pm 6 11 mph 1012.4mb 51f 51f
12:12pm 6 10 mph 1012.4mb 51f 51f
12:06pm 5 7 mph 1012.5mb 51f 51f
12:00pm 5 9 mph 1012.5mb 52f 51f
11:36am 7 11 mph 1012.5mb 52f 52f
11:30am 5 14 mph 1012.5mb 52f 52f
11:24am 7 10 mph 1012.5mb 52f 52f
11:18am 7 11 mph 1012.6mb 52f 52f
11:12am 6 9 mph 1012.6mb 52f 52f
11:06am 5 14 mph 1012.6mb 52f 51f
11:00am 6 11 mph 1012.6mb 52f 51f
10:36am 11 17 mph 1012.7mb 52f 51f
10:30am 9 18 mph 1012.7mb 52f 51f
10:24am 11 18 mph 1012.6mb 52f 51f
10:18am 9 21 mph 1012.5mb 52f 51f
10:12am 8 18 mph 1012.5mb 52f 51f
10:06am 9 15 mph 1012.4mb 52f 51f
10:00am 10 14 mph 1012.3mb 52f 51f
9:36am 8 13 mph 1012.3mb 52f 51f
9:30am 7 14 mph 1012.3mb 52f 51f
9:24am 6 11 mph 1012.2mb 52f 51f
9:18am 7 17 mph 1012.2mb 52f 51f
9:12am 13 20 mph 1012.1mb 51f 51f
9:06am 10 20 mph 1012.1mb 51f 51f
9:00am 9 15 mph 1012.1mb 51f 51f
8:36am 7 14 mph 1011.9mb 51f 51f
8:30am 8 15 mph 1011.9mb 51f 51f
8:24am 7 17 mph 1011.9mb 51f 51f
8:18am 8 14 mph 1011.9mb 51f 51f
8:12am 8 14 mph 1011.9mb 51f 51f
8:06am 8 15 mph 1012mb 51f 51f
8:00am 8 15 mph 1011.9mb 51f 51f
7:36am 9 16 mph 1011.8mb 51f 51f
7:30am 8 14 mph 1011.8mb 51f 52f
7:24am 8 13 mph 1011.8mb 51f 52f
7:18am 11 18 mph 1011.8mb 51f 52f
7:12am 9 15 mph 1011.8mb 51f 52f
7:06am 8 14 mph 1011.7mb 51f 52f
7:00am 9 15 mph 1011.7mb 51f 52f
6:36am 11 17 mph 1011.5mb 51f 51f
6:30am 9 14 mph 1011.4mb 51f 51f
6:24am 6 11 mph 1011.4mb 51f 51f
6:18am 10 17 mph 1011.4mb 51f 52f
6:12am 10 20 mph 1011.3mb 51f 52f
6:06am 11 23 mph 1011.3mb 51f 52f
6:00am 14 18 mph 1011.3mb 51f 51f
5:36am 9 16 mph 1011.2mb 50f 51f
5:30am 11 17 mph 1011.1mb 50f 51f
5:24am 10 16 mph 1011.1mb 50f 51f
5:18am 8 14 mph 1011mb 49f 51f
5:12am 9 18 mph 1010.9mb 49f 51f
5:06am 10 20 mph 1010.8mb 48f 51f
5:00am 13 23 mph 1010.7mb 48f 52f
4:36am 13 18 mph 1010.6mb 47f 52f
4:30am 13 18 mph 1010.6mb 47f 51f
4:24am 13 21 mph 1010.6mb 46f 52f
4:18am 14 23 mph 1010.5mb 46f 52f
4:12am 13 17 mph 1010.4mb 46f 51f
4:06am 11 20 mph 1010.3mb 46f 51f
4:00am 15 22 mph 1010.3mb 46f 51f
3:36am 11 20 mph 1010.2mb 46f 51f
3:30am 13 20 mph 1010.1mb 46f 51f
3:24am 13 18 mph 1010mb 47f 51f
3:18am 13 18 mph 1010mb 47f 51f
3:12am 14 22 mph 1009.9mb 47f 51f
3:06am 11 18 mph 1009.8mb 48f 51f
3:00am 11 21 mph 1009.8mb 48f 51f
2:36am 18 25 mph 1009.6mb 51f 51f
2:30am 13 18 mph 1009.5mb 51f 51f
2:24am 13 21 mph 1009.4mb 51f 50f
2:18am 10 20 mph 1009.3mb 51f 50f
2:12am 13 20 mph 1009.2mb 51f 50f
2:06am 15 22 mph 1009.1mb 51f 50f
2:00am 11 20 mph 1009mb 51f 50f
1:36am 14 24 mph 1008.8mb 51f 50f
1:30am 15 31 mph 1008.7mb 51f 50f
1:24am 15 28 mph 1008.6mb 52f 50f
1:18am 17 25 mph 1008.5mb 52f 50f
1:12am 14 25 mph 1008.5mb 52f 50f
1:06am 15 24 mph 1008.5mb 52f 50f
1:00am 14 29 mph 1008.4mb 52f 50f
12:36am 15 25 mph 1008mb 52f 50f
12:30am 14 25 mph 1008mb 52f 51f
12:24am 14 25 mph 1007.9mb 52f 50f
12:18am 8 23 mph 1007.9mb 52f 51f
12:12am 11 26 mph 1007.8mb 52f 51f
12:06am 11 22 mph 1007.7mb 52f 51f
12:00am 11 18 mph 1007.6mb 52f 51f
Wed 11/19 11:36pm 8 18 mph 1007.4mb 52f 53f
11:30pm 9 18 mph 1007.3mb 52f 53f
11:24pm 10 21 mph 1007.3mb 52f 53f
11:18pm 9 17 mph 1007.2mb 51f 54f
11:12pm 14 24 mph 1007.2mb 51f 55f
11:06pm 14 22 mph 1007.1mb 51f 55f
11:00pm 11 28 mph 1007.1mb 51f 55f
10:36pm 10 21 mph 1007.2mb 51f 55f
10:30pm 10 15 mph 1007.1mb 51f 55f
10:24pm 8 14 mph 1007.1mb 51f 56f
10:18pm 8 13 mph 1007.2mb 51f 55f
10:12pm 6 9 mph 1007.1mb 51f 56f
10:06pm 6 15 mph 1007.2mb 51f 56f
10:00pm 8 14 mph 1007.2mb 51f 55f
9:36pm 8 20 mph 1007.2mb 51f 55f
9:30pm 11 21 mph 1007.2mb 51f 56f
9:24pm 11 21 mph 1007.2mb 51f 55f
9:18pm 9 14 mph 1007.2mb 51f 55f
9:12pm 13 22 mph 1007.2mb 51f 55f
9:06pm 11 16 mph 1007.2mb 51f 53f
9:00pm 8 11 mph 1007.1mb 51f 53f
8:36pm 6 10 mph 1007.4mb 51f 49f
8:30pm 6 10 mph 1007.4mb 51f 47f
8:24pm 7 9 mph 1007.5mb 51f 47f
8:18pm 7 9 mph 1007.6mb 51f 47f
8:12pm 7 9 mph 1007.6mb 51f 47f
8:06pm 7 9 mph 1007.7mb 51f 47f
8:00pm 8
mph
1007.8mb 51f 47f
7:36pm 8 9 mph 1007.6mb 51f 48f
7:30pm 7 9 mph 1007.5mb 50f 48f
7:24pm 7 10 mph 1007.6mb 50f 48f
7:18pm 7 8 mph 1007.6mb 50f 48f
7:12pm 8 10 mph 1007.6mb 50f 48f
7:06pm 7 8 mph 1007.5mb 50f 48f
7:00pm 6 8 mph 1007.5mb 50f 48f
6:36pm 7 9 mph 1007.5mb 48f 48f
6:30pm 7 10 mph 1007.5mb 48f 48f
6:24pm 7 10 mph 1007.5mb 48f 49f
6:18pm 9 11 mph - - 48f
6:12pm 6 10 mph 1007.5mb 47f 48f
6:06pm 6 10 mph 1007.5mb 46f 49f
6:00pm 7 10 mph 1007.4mb 46f 49f
5:36pm 8 10 mph 1007.4mb 45f 49f
5:30pm 6 9 mph 1007.4mb 45f 49f
5:24pm 6 10 mph 1007.5mb 45f 50f
5:18pm 7 9 mph 1007.5mb 45f 50f
5:12pm 6 9 mph 1007.5mb 45f 50f
5:06pm 6 7 mph 1007.6mb 45f 50f
5:00pm 6 8 mph 1007.6mb 45f 50f
4:36pm 2 3 mph - - 50f
4:30pm 2 5 mph 1007.7mb 45f 51f
4:24pm 3 5 mph 1007.7mb 44f 51f
4:18pm 3 5 mph 1007.7mb 44f 52f
4:12pm 2 3 mph 1007.7mb 44f 52f
4:06pm 2
mph
1007.8mb 44f 53f
4:00pm 2
mph
1007.8mb 44f 53f
3:36pm 2 3 mph 1008.1mb 44f 53f
3:30pm 2 3 mph 1008.1mb 44f 53f
3:24pm 1 2 mph 1008.1mb 44f 53f
3:18pm  -  3 mph 1008mb 44f 53f
3:12pm 3 5 mph 1008.1mb 44f 53f
3:06pm 3 6 mph 1008mb 45f 53f
3:00pm 3 5 mph 1008mb 45f 54f
2:36pm 2 6 mph 1008mb 47f 53f
2:30pm 6 8 mph 1008.1mb 47f 53f
2:24pm 9 11 mph 1008.2mb 47f 54f
2:18pm 9 13 mph 1008.2mb 48f 56f
2:12pm 7 9 mph 1008.2mb 49f 56f
2:06pm 6 9 mph 1007.9mb 49f 56f
2:00pm 6 10 mph 1007.8mb 50f 56f
1:36pm 8 10 mph 1007.7mb 51f 55f
1:30pm 8 10 mph 1007.8mb 51f 55f
1:24pm 7 11 mph 1007.9mb 51f 55f
1:18pm 8 13 mph 1007.9mb 51f 54f
1:12pm 9 11 mph 1008mb 51f 54f
1:06pm 9 13 mph 1008.1mb 51f 54f
1:00pm 9 13 mph 1008.2mb 51f 53f
12:54pm 8 11 mph 1008.3mb 51f 53f
12:48pm 9 11 mph 1008.4mb 51f 53f
12:36pm 9 13 mph 1008.7mb 51f 53f
12:30pm 9 14 mph 1008.8mb 51f 53f
12:24pm 9 13 mph 1008.9mb 51f 52f
12:18pm 9 13 mph 1009mb 51f 52f
12:12pm 9 11 mph 1009.1mb 51f 52f
12:06pm 9 13 mph 1009.2mb 51f 51f
12:00pm 9 14 mph 1009.3mb 51f 51f
11:54am 10 13 mph 1009.3mb 51f 51f
11:48am 10 14 mph 1009.5mb 51f 51f
11:36am  -  mph 1009.7mb 51f -
11:24am  -  mph 1009.9mb 51f -
11:18am  -  mph 1009.9mb 51f -
11:12am  -  mph 1009.9mb 51f -
11:06am  -  mph 1010.1mb 51f -
11:00am  -  mph 1010.3mb 51f -
10:54am  -  mph 1010.4mb 51f -
10:48am  -  mph 1010.4mb 51f -
10:36am 10 13 mph 1010.6mb 51f 47f
10:30am 10 14 mph 1010.6mb 51f 47f
10:24am 10 15 mph 1010.6mb 51f 47f
10:18am 10 14 mph 1010.7mb 51f 46f
10:12am 11 15 mph 1010.7mb 51f 46f
10:06am 11 14 mph 1010.8mb 51f 46f
10:00am 11 14 mph 1010.9mb 51f 46f
9:54am 11 14 mph 1011mb 51f 45f
9:48am 11 14 mph 1011mb 51f 45f
9:36am 10 14 mph 1011.1mb 51f 45f
9:30am 10 13 mph 1011.1mb 51f 45f
9:24am 11 15 mph 1011.2mb 51f 45f
9:18am 10 14 mph 1011.3mb 51f 45f
9:12am 10 14 mph 1011.3mb 51f 44f
9:06am 10 14 mph 1011.3mb 51f 44f
9:00am 10 14 mph - - 44f
8:54am 11 15 mph 1011.4mb 51f 44f
8:48am 10 14 mph 1011.5mb 51f 44f
8:36am 10 14 mph 1011.6mb 51f 44f
8:30am 10 15 mph 1011.6mb 51f 44f
8:24am 11 15 mph 1011.7mb 51f 44f
8:18am 10 15 mph 1011.7mb 51f 44f
8:12am 9 14 mph 1011.8mb 51f 44f
8:06am 10 13 mph 1011.8mb 51f 44f
8:00am 10 15 mph - - 44f
7:54am 10 14 mph 1011.9mb 51f 44f
7:48am 10 15 mph - - 44f
7:36am 11 16 mph 1012mb 51f 44f
7:30am 9 14 mph 1012.1mb 51f 44f
7:24am 10 14 mph 1012.1mb 51f 44f
7:18am 11 15 mph 1012.2mb 51f 44f
7:12am 9 16 mph 1012.3mb 51f 44f
7:06am 11 16 mph 1012.3mb 51f 44f
7:00am 10 14 mph 1012.3mb 51f 44f
6:54am 10 15 mph 1012.3mb 51f 44f
6:48am 11 14 mph 1012.4mb 51f 44f
6:36am 11 15 mph 1012.6mb 51f 44f
6:30am 11 15 mph 1012.6mb 51f 44f
6:24am 11 16 mph 1012.6mb 51f 44f
6:18am 11 15 mph 1012.6mb 51f 44f
6:12am 11 16 mph 1012.7mb 51f 44f
6:06am 11 16 mph 1012.7mb 51f 44f
6:00am 11 16 mph 1012.8mb 51f 44f
5:54am 11 15 mph 1012.9mb 51f 43f
5:48am 13 16 mph 1013mb 51f 43f
5:36am 11 16 mph 1013.1mb 51f 43f
5:30am 14 17 mph 1013.2mb 51f 43f
5:24am 11 15 mph 1013.2mb 51f 42f
5:18am 10 15 mph 1013.3mb 51f 42f
5:12am 10 14 mph 1013.4mb 51f 42f
5:06am 10 14 mph 1013.5mb 51f 42f
5:00am 10 15 mph - - 42f
4:54am 11 14 mph 1013.6mb 50f 42f
4:48am 11 15 mph 1013.7mb 50f 42f
4:36am 11 14 mph 1013.8mb 49f 42f
4:30am 11 15 mph 1013.8mb 49f 42f
4:24am 11 15 mph 1013.8mb 48f 42f
4:18am 11 15 mph 1013.9mb 48f 41f
4:12am 11 14 mph 1013.9mb 47f 41f
4:06am 10 14 mph 1013.9mb 47f 41f
4:00am 11 14 mph 1014mb 47f 41f
3:54am 11 14 mph 1014mb 47f 41f
3:48am 11 15 mph 1014.1mb 47f 41f
3:36am 11 14 mph 1014.2mb 47f 41f
3:30am 10 13 mph 1014.3mb 46f 41f
3:24am 10 14 mph 1014.4mb 46f 41f
3:18am 10 14 mph 1014.5mb 47f 41f
3:12am 11 14 mph 1014.6mb 47f 41f
3:06am 11 14 mph 1014.6mb 47f 41f
3:00am 11 14 mph 1014.7mb 47f 41f
2:54am 11 15 mph 1014.7mb 47f 41f
2:48am 11 14 mph 1014.8mb 47f 41f
2:36am 11 14 mph 1014.9mb 48f 41f
2:30am 11 14 mph 1014.9mb 48f 41f
2:24am 11 14 mph 1015mb 49f 41f
2:18am 11 14 mph 1015.1mb 49f 41f
2:12am 11 14 mph 1015.1mb 50f 41f
2:06am 11 14 mph 1015.2mb 51f 41f
2:00am 11 15 mph 1015.1mb 51f 41f
1:54am 11 14 mph 1015.1mb 51f 41f
1:48am 10 14 mph 1015.1mb 51f 41f
1:36am 10 14 mph 1015.2mb 51f 41f
1:30am 10 13 mph 1015.2mb 51f 41f
1:24am 10 14 mph 1015.3mb 51f 41f
1:18am 11 13 mph 1015.3mb 51f 41f
1:12am 10 13 mph 1015.4mb 51f 41f
1:06am 11 13 mph 1015.4mb 51f 41f
1:00am 10 14 mph 1015.4mb 51f 41f
12:54am 10 14 mph 1015.4mb 51f 41f
12:48am 11 14 mph 1015.4mb 51f 41f
12:36am 9 14 mph 1015.5mb 51f 41f
12:30am 10 14 mph 1015.6mb 51f 41f
12:24am 11 15 mph 1015.6mb 51f 41f
12:18am 10 14 mph 1015.7mb 51f 41f
12:12am 10 14 mph 1015.7mb 51f 41f
12:06am 10 14 mph 1015.8mb 51f 41f
12:00am 10 14 mph 1015.8mb 51f 41f
Tue 11/18 11:54pm 10 14 mph 1015.8mb 51f 41f
11:48pm 11 14 mph 1015.8mb 51f 41f
11:36pm 10 15 mph 1015.8mb 51f 41f
11:30pm 11 14 mph 1015.8mb 51f 41f
11:24pm 10 13 mph 1015.9mb 51f 41f
11:18pm 11 15 mph 1015.9mb 51f 41f
11:12pm 10 14 mph 1015.9mb 51f 41f
11:06pm 11 14 mph 1015.9mb 51f 41f
11:00pm 10 14 mph 1016mb 52f 41f
10:54pm 10 13 mph 1016mb 51f 42f
10:48pm 9 13 mph 1016mb 52f 42f
10:36pm 10 13 mph 1016.1mb 52f 42f
10:30pm 10 14 mph 1016mb 52f 42f
10:24pm 10 13 mph 1016.1mb 52f 42f
10:18pm 9 14 mph 1016.2mb 52f 42f
10:12pm 10 14 mph 1016.2mb 52f 42f
10:06pm 10 13 mph 1016.2mb 52f 42f
10:00pm 9 13 mph 1016.2mb 52f 42f
9:54pm 9 13 mph 1016.2mb 52f 42f
9:48pm 9 11 mph 1016.2mb 52f 42f
9:36pm 8 11 mph 1016.3mb 52f 42f
9:30pm 8 13 mph 1016.3mb 52f 42f
9:24pm 7 14 mph 1016.2mb 52f 42f
9:18pm 9 13 mph 1016.2mb 52f 42f
9:12pm 7 10 mph 1016.3mb 52f 42f
9:06pm 7 13 mph 1016.4mb 52f 42f
9:00pm 9 11 mph 1016.3mb 52f 42f
8:54pm 9 11 mph 1016.3mb 52f 43f
8:48pm 8 11 mph 1016.4mb 52f 43f
8:36pm 8 10 mph 1016.5mb 52f 43f
8:30pm 7 10 mph 1016.5mb 52f 43f
8:24pm 8 11 mph 1016.5mb 52f 43f
8:18pm 8 10 mph 1016.5mb 52f 43f
8:12pm 9 10 mph 1016.5mb 52f 43f
8:06pm 7 10 mph 1016.5mb 52f 43f
8:00pm 9 11 mph 1016.5mb 52f 43f
7:54pm 7 9 mph 1016.6mb 52f 43f
7:48pm 7 10 mph 1016.6mb 52f 43f
7:36pm 9 11 mph 1016.6mb 53f 43f
7:30pm 8 10 mph 1016.6mb 53f 43f
7:24pm 9 11 mph 1016.6mb 53f 43f
7:18pm 8 10 mph 1016.5mb 53f 43f
7:12pm 8 11 mph 1016.5mb 53f 43f
7:06pm 9 10 mph 1016.6mb 53f 44f
7:00pm 7 10 mph 1016.6mb 53f 44f
6:54pm 8 10 mph 1016.7mb 53f 44f
6:48pm 8 10 mph 1016.8mb 53f 44f
6:36pm 7 10 mph 1016.8mb 53f 44f
6:30pm 8 10 mph 1016.8mb 53f 44f
6:24pm 8 9 mph 1016.8mb 52f 45f
6:18pm 8 9 mph 1016.8mb 52f 44f
6:12pm 6 9 mph 1016.9mb 52f 45f
6:06pm 8 9 mph 1016.9mb 52f 45f
6:00pm 7 9 mph 1016.9mb 52f 45f
5:54pm 7 9 mph 1016.9mb 51f 45f
5:48pm 7 9 mph 1017mb 51f 46f
5:36pm 6 7 mph 1016.9mb 49f 46f
5:30pm 6 8 mph 1016.9mb 48f 46f
5:24pm 7 8 mph 1016.9mb 47f 46f
5:18pm 6 7 mph 1017mb 46f 46f
5:12pm 6 7 mph 1017mb 45f 46f
5:06pm 6 7 mph 1016.9mb 44f 46f
5:00pm 6
mph
1016.9mb 44f 46f
4:54pm 5 6 mph 1016.9mb 43f 46f
4:48pm 5 6 mph 1016.9mb 43f 46f
4:36pm 5 6 mph 1017mb 42f 46f
4:30pm 3 6 mph 1017.1mb 43f 47f
4:24pm 3 6 mph 1017.2mb 43f 48f
4:18pm 3 5 mph 1017.2mb 42f 48f
4:12pm 3 5 mph 1017.2mb 42f 48f
4:06pm 3 5 mph 1017.2mb 42f 49f
4:00pm 3 5 mph 1017.2mb 43f 50f
3:54pm 5 6 mph 1017.3mb 43f 50f
3:48pm 3 6 mph 1017.4mb 42f 51f
3:36pm 3 5 mph 1017.5mb 43f 52f
3:30pm 2 3 mph 1017.6mb 43f 53f
3:24pm 3
mph
1017.6mb 43f 53f
3:18pm 2 3 mph 1017.7mb 42f 53f
3:12pm 2 5 mph 1017.6mb 42f 53f
3:06pm 2 5 mph 1017.7mb 42f 54f
3:00pm 2 3 mph - - 54f
2:54pm 2 3 mph 1017.7mb 43f 54f
2:48pm 2 5 mph 1017.7mb 43f 54f
2:36pm 2
mph
1017.6mb 44f 53f
2:30pm 2 5 mph 1017.6mb 44f 53f
2:24pm 2 5 mph 1017.6mb 44f 53f
2:18pm 2 3 mph 1017.6mb 45f 53f
2:12pm 1 5 mph 1017.7mb 46f 52f
2:06pm 3 5 mph 1017.7mb 46f 52f
2:00pm 3 5 mph 1017.7mb 47f 52f
1:54pm 2 5 mph 1017.8mb 48f 52f
1:48pm 2 5 mph 1017.8mb 48f 52f
1:36pm 3 5 mph 1017.8mb 51f 52f
1:30pm 3 6 mph 1017.9mb 51f 51f
1:24pm 5 6 mph 1017.9mb 52f 51f
1:18pm 5 6 mph 1017.9mb 53f 51f
1:12pm 3 5 mph 1017.9mb 53f 51f
1:06pm 3 5 mph 1017.9mb 53f 51f
1:00pm 5 6 mph 1017.9mb 53f 50f
12:54pm 3 6 mph 1017.9mb 53f 50f
12:48pm 3 6 mph 1017.8mb 53f 49f
12:36pm 5 7 mph 1017.8mb 53f 49f
12:30pm 6 8 mph 1017.8mb 53f 48f
12:24pm 6 7 mph 1017.9mb 53f 48f
12:18pm 6 7 mph 1017.9mb 53f 48f
12:12pm 7 10 mph 1017.8mb 53f 47f
12:06pm 7 9 mph 1017.9mb 53f 47f
12:00pm 7 8 mph 1018mb 53f 46f
11:54am 6 8 mph 1018mb 53f 46f
11:48am 6 9 mph 1018mb 53f 45f
11:36am 8 9 mph 1018.1mb 53f 44f
11:30am 8 9 mph 1018.3mb 53f 44f
11:24am 8 9 mph 1018.3mb 53f 44f
11:18am 8 10 mph 1018.3mb 53f 44f
11:12am 8 11 mph 1018.5mb 53f 43f
11:06am 6 9 mph 1018.5mb 53f 42f
11:00am 7 10 mph 1018.5mb 53f 42f
10:54am 9 13 mph 1018.5mb 53f 41f
10:48am 8 13 mph 1018.4mb 53f 40f
10:36am 9 13 mph 1018.5mb 53f 39f
10:30am 9 11 mph 1018.5mb 53f 39f
10:24am 8 11 mph 1018.6mb 53f 38f
10:18am 9 13 mph 1018.6mb 53f 37f
10:12am 9 13 mph 1018.6mb 53f 37f
10:06am 10 13 mph 1018.7mb 53f 36f
10:00am 10 13 mph 1018.7mb 53f 36f
9:54am 9 13 mph 1018.9mb 53f 35f
9:48am 10 14 mph 1018.9mb 53f 35f
9:36am 11 14 mph 1018.7mb 54f 35f
9:30am 10 14 mph 1018.7mb 54f 35f
9:24am 11 14 mph 1018.6mb 54f 34f
9:18am 11 15 mph 1018.6mb 53f 34f
9:12am 11 14 mph 1018.6mb 54f 34f
9:06am 11 14 mph 1018.7mb 54f 34f
9:00am 11 15 mph 1018.7mb 54f 34f
8:54am 13 16 mph 1018.7mb 54f 34f
8:48am 11 15 mph 1018.7mb 54f 33f
8:36am 11 14 mph - - 33f
8:30am 10 13 mph 1018.7mb 54f 33f
8:24am 10 11 mph 1018.7mb 54f 33f
8:18am 10 13 mph 1018.7mb 54f 33f
8:12am 8 10 mph 1018.7mb 54f 33f
8:06am 9 13 mph 1018.6mb 54f 33f
8:00am 9 11 mph 1018.5mb 54f 33f
7:54am 9 11 mph 1018.4mb 54f 33f
7:48am 9 13 mph 1018.3mb 54f 33f
7:36am 11 14 mph 1018.1mb 54f 33f
7:30am 11 14 mph 1018mb 54f 33f
7:24am 10 14 mph 1018mb 54f 32f
7:18am 11 14 mph 1017.9mb 54f 32f
7:12am 11 16 mph 1017.8mb 54f 32f
7:06am 11 14 mph 1017.8mb 54f 32f
7:00am 11 16 mph 1017.8mb 54f 32f
6:54am 14 16 mph 1017.8mb 54f 32f
6:48am 13 15 mph 1017.8mb 54f 32f
6:36am 11 14 mph 1017.8mb 54f 33f
6:30am 11 14 mph 1018mb 54f 33f
6:24am 11 14 mph 1017.9mb 54f 32f
6:18am 11 14 mph 1018mb 54f 32f
6:12am 11 14 mph 1018.1mb 54f 32f
6:06am 11 14 mph 1018.1mb 54f 33f
6:00am 11 14 mph 1018.1mb 54f 32f
5:54am 10 15 mph 1018.2mb 54f 32f
5:48am 13 14 mph 1018.2mb 54f 32f
5:36am 13 16 mph 1018.3mb 54f 33f
5:30am 11 15 mph 1018.3mb 54f 33f
5:24am 13 15 mph 1018.4mb 54f 33f
5:18am 11 15 mph 1018.4mb 54f 33f
5:12am 13 15 mph 1018.5mb 54f 33f
5:06am 13 15 mph 1018.6mb 54f 33f
5:00am 11 14 mph 1018.7mb 54f 33f
4:54am 11 14 mph 1018.7mb 54f 33f
4:48am 10 15 mph 1018.7mb 54f 33f
4:36am 13 15 mph 1018.7mb 54f 33f
4:30am 13 16 mph 1018.8mb 53f 33f
4:24am 11 16 mph 1018.8mb 53f 33f
4:18am 11 15 mph 1018.6mb 53f 33f
4:12am 10 15 mph 1018.6mb 52f 33f
4:06am 14 15 mph 1018.6mb 51f 33f
4:00am 13 15 mph 1018.7mb 51f 33f
3:54am 11 15 mph 1018.7mb 50f 33f
3:48am 13 15 mph 1018.8mb 50f 33f
3:36am 13 15 mph 1019mb 48f 33f
3:30am 11 14 mph 1019mb 47f 33f
3:24am 13 15 mph 1018.9mb 47f 33f
3:18am 13 15 mph 1018.9mb 47f 33f
3:12am 13 16 mph 1019mb 47f 33f
3:06am 11 15 mph 1019.1mb 46f 33f
3:00am 13 15 mph 1019.1mb 46f 33f
2:54am 13 16 mph 1019.1mb 45f 33f
2:48am 13 17 mph 1019.1mb 45f 33f
2:36am 13 15 mph 1019.1mb 45f 33f
2:30am 13 15 mph 1019.1mb 46f 33f
2:24am 11 14 mph 1019.1mb 47f 33f
2:18am 13 15 mph 1019.1mb 47f 33f
2:12am 14 16 mph 1019.1mb 47f 33f
2:06am 14 15 mph 1019.1mb 46f 33f
2:00am 13 15 mph 1019.1mb 46f 33f
1:54am 13 15 mph 1019.1mb 46f 33f
1:48am 13 16 mph 1019.1mb 47f 33f
1:36am 13 14 mph 1019.1mb 49f 33f
1:30am 14 15 mph 1019.1mb 49f 33f
1:24am 13 15 mph 1019.1mb 50f 34f
1:18am 13 15 mph 1019.1mb 51f 34f
1:12am 13 15 mph 1019.1mb 51f 34f
1:06am 11 15 mph 1019.1mb 52f 34f
1:00am 13 14 mph 1019.1mb 53f 34f
12:54am 13 14 mph 1019.2mb 54f 34f
12:48am 11 15 mph 1019.2mb 54f 34f
12:36am 11 14 mph 1019.3mb 54f 34f
12:30am 13 15 mph 1019.4mb 54f 34f
12:24am 13 14 mph 1019.5mb 54f 34f
12:18am 11 15 mph 1019.5mb 54f 34f
12:12am 11 14 mph 1019.6mb 54f 34f
12:06am 10 13 mph 1019.7mb 54f 35f
12:00am 11 14 mph 1019.8mb 54f 35f
Mon 11/17 11:54pm 10 15 mph 1019.8mb 54f 35f
11:48pm 10 15 mph 1019.9mb 54f 35f
11:36pm 10 13 mph 1020.1mb 54f 35f
11:30pm 10 13 mph 1020.2mb 54f 35f
11:24pm 10 13 mph 1020.3mb 54f 35f
11:18pm 11 14 mph 1020.2mb 54f 35f
11:12pm 9 11 mph 1020.3mb 54f 35f
11:06pm 9 14 mph 1020.4mb 54f 36f
11:00pm 10 14 mph 1020.4mb 54f 36f
10:54pm 11 14 mph 1020.3mb 54f 36f
10:48pm 10 13 mph 1020.3mb 54f 36f
10:36pm 10 13 mph 1020.5mb 54f 36f
10:30pm 8 13 mph 1020.5mb 55f 36f
10:24pm 10 14 mph 1020.5mb 55f 36f
10:18pm 10 13 mph 1020.5mb 55f 36f
10:12pm 10 14 mph 1020.5mb 55f 37f
10:06pm 10 13 mph 1020.5mb 55f 37f
10:00pm 10 13 mph 1020.6mb 55f 37f
9:54pm 9 13 mph 1020.7mb 55f 37f
9:48pm 9 13 mph 1020.7mb 55f 37f
9:36pm 9 13 mph 1020.9mb 55f 37f
9:30pm 7 13 mph 1021mb 55f 37f
9:24pm 9 13 mph 1021mb 55f 37f
9:18pm 8 11 mph 1021mb 55f 37f
9:12pm 10 13 mph 1021mb 55f 37f
9:06pm 9 14 mph 1021.1mb 55f 38f
9:00pm 9 11 mph 1021.1mb 55f 38f
8:54pm 8 11 mph 1021.2mb 55f 38f
8:48pm 9 11 mph 1021.2mb 55f 38f
8:36pm 8 11 mph 1021.3mb 55f 38f
8:30pm 8 14 mph 1021.3mb 55f 38f
8:24pm 8 13 mph 1021.3mb 55f 38f
8:18pm 9 13 mph 1021.3mb 55f 38f
8:12pm 7 11 mph 1021.4mb 55f 38f
8:06pm 6 11 mph 1021.3mb 55f 39f
8:00pm 8 13 mph 1021.3mb 55f 39f
7:54pm 9 13 mph 1021.3mb 55f 39f
7:48pm 7 11 mph 1021.5mb 55f 40f
7:36pm 9 11 mph 1021.6mb 55f 40f
7:30pm 10 11 mph 1021.8mb 55f 40f
7:24pm 8 11 mph 1021.9mb 55f 41f
7:18pm 8 10 mph 1021.9mb 55f 41f
7:12pm 9 11 mph 1021.9mb 55f 41f
7:06pm 8 10 mph 1022mb 55f 41f
7:00pm 7 9 mph 1022mb 55f 42f
6:54pm 8 10 mph 1022mb 55f 42f
6:48pm 7 10 mph 1022.1mb 55f 42f
6:36pm 8 11 mph 1022.2mb 55f 42f
6:30pm 8 10 mph 1022.2mb 55f 42f
6:24pm 8 9 mph 1022.3mb 55f 42f
6:18pm 8 10 mph 1022.2mb 55f 42f
6:12pm 9 10 mph 1022.2mb 55f 42f
6:06pm 7 9 mph 1022.3mb 55f 42f
6:00pm 7 9 mph 1022.3mb 54f 42f
5:54pm 7 8 mph 1022.4mb 54f 42f
5:48pm 6 7 mph 1022.5mb 54f 42f
5:36pm 2 5 mph 1022.7mb 54f 44f
5:30pm 3
mph
1022.7mb 54f 45f
5:24pm 3 6 mph 1022.7mb 54f 46f
5:18pm 5 6 mph 1022.7mb 53f 45f
5:12pm 2 5 mph 1022.9mb 53f 44f
5:06pm 1 3 mph 1022.9mb 52f 45f
5:00pm 2 3 mph 1022.8mb 51f 45f
4:54pm 2 3 mph 1022.8mb 51f 45f
4:48pm 3 5 mph 1022.8mb 51f 45f
4:36pm 3 5 mph 1022.8mb 48f 46f
4:30pm 2 3 mph 1022.9mb 48f 46f
4:24pm 3
mph
1023mb 47f 48f
4:18pm 2 3 mph 1023mb 47f 49f
4:12pm 2
mph
1023mb 45f 48f
4:06pm 1 2 mph 1023mb 44f 49f
4:00pm 2 3 mph 1023mb 43f 49f
3:54pm 3 6 mph 1023.1mb 43f 49f
3:48pm 5 6 mph 1023.1mb 43f 49f
3:36pm 3 5 mph 1023.2mb 43f 50f
3:30pm 3 6 mph 1023.1mb 42f 50f
3:24pm 5
mph
1023.2mb 42f 50f
3:18pm 3 5 mph 1023.1mb 42f 50f
3:12pm 3 5 mph 1023.2mb 42f 50f
3:06pm 2 3 mph 1023.3mb 42f 50f
3:00pm 2 3 mph - - 50f
2:54pm 3
mph
1023.4mb 42f 50f
2:48pm 3
mph
1023.3mb 42f 50f
2:36pm 2 3 mph 1023.3mb 43f 50f
2:30pm 2 3 mph 1023.3mb 43f 50f
2:24pm 2
mph
1023.3mb 43f 50f
2:18pm 2
mph
1023.3mb 43f 51f
2:12pm  -  1 mph 1023.2mb 43f 51f
2:06pm  -  mph 1023.2mb 43f 51f
2:00pm  -  1 mph 1023.3mb 43f 51f
1:54pm  -  mph 1023.3mb 43f 51f
1:48pm  -  1 mph 1023.4mb 44f 50f
1:36pm 1 2 mph 1023.5mb 45f 50f
1:30pm 3 5 mph 1023.5mb 46f 50f
1:24pm 3 5 mph 1023.5mb 46f 49f
1:18pm 3 5 mph 1023.6mb 47f 49f
1:12pm 5
mph
1023.7mb 49f 49f
1:06pm 5
mph
1023.8mb 49f 49f
1:00pm 5 6 mph 1023.9mb 51f 49f
12:54pm 3 5 mph 1024.1mb 52f 52f
12:48pm 2
mph
1024.1mb 53f 53f
12:36pm  -  1 mph 1024.3mb 53f 50f
12:30pm 2
mph
1024.5mb 54f 50f
12:24pm 2 3 mph 1024.6mb 54f 49f
12:18pm 3
mph
1024.6mb 54f 51f
12:12pm  -  6 mph 1024.7mb 54f 51f
12:06pm 3 6 mph 1024.7mb 54f 50f
12:00pm 3 7 mph 1024.8mb 54f 49f
11:54am 5 7 mph 1024.9mb 54f 49f
11:48am 3 5 mph 1025mb 54f 48f
11:36am 3 6 mph 1025.1mb 54f 47f
11:30am 5 6 mph 1025.2mb 54f 47f
11:24am 3 6 mph 1025.4mb 54f 46f
11:18am 3 6 mph 1025.5mb 54f 45f
11:12am 6 8 mph 1025.5mb 54f 44f
11:06am 6 8 mph 1025.5mb 54f 44f
11:00am 7 10 mph 1025.5mb 54f 43f
10:54am 7 9 mph 1025.6mb 54f 42f
10:48am 7 9 mph 1025.7mb 54f 42f
10:36am 7 9 mph 1025.8mb 54f 41f
10:30am 8 11 mph 1025.9mb 54f 40f
10:24am 7 10 mph 1025.9mb 54f 39f
10:18am 7 8 mph 1026mb 54f 39f
10:12am 6 9 mph 1026.2mb 54f 38f
10:06am 7 9 mph 1026.2mb 54f 38f
10:00am 7 10 mph 1026.2mb 54f 37f
9:54am 8 11 mph 1026.2mb 54f 37f
9:48am 9 13 mph 1026.1mb 54f 37f
9:36am 10 14 mph 1026.1mb 54f 36f
9:30am 10 14 mph 1026.1mb 54f 36f
9:24am 11 14 mph 1026.1mb 54f 35f
9:18am 13 15 mph 1026mb 54f 35f
9:12am 11 15 mph 1026mb 54f 35f
9:06am 11 15 mph 1026mb 54f 34f
9:00am 10 14 mph 1026mb 54f 33f
8:54am 10 14 mph 1026.1mb 54f 33f
8:48am 11 14 mph 1026.1mb 55f 33f
8:36am 10 13 mph 1026mb 55f 32f
8:30am 11 14 mph 1025.9mb 55f 31f
8:24am 10 14 mph 1026mb 55f 31f
8:18am 11 14 mph 1025.9mb 55f 31f
8:12am 11 14 mph 1025.9mb 55f 31f
8:06am 10 14 mph 1026.1mb 55f 31f
8:00am 11 14 mph 1026mb 55f 31f
7:54am 10 15 mph 1026.1mb 55f 30f
7:48am 11 14 mph 1026.1mb 55f 30f
7:36am 11 15 mph 1026.2mb 55f 30f
7:30am 10 14 mph 1026.2mb 55f 30f
7:24am 10 15 mph 1026.3mb 55f 30f
7:18am 11 14 mph 1026.3mb 55f 30f
7:12am 10 14 mph 1026.3mb 55f 30f
7:06am 10 14 mph 1026.3mb 55f 30f
7:00am 11 14 mph 1026.4mb 55f 30f
6:54am 10 13 mph 1026.6mb 55f 30f
6:48am 10 13 mph 1026.7mb 55f 30f
6:36am 9 11 mph 1026.8mb 55f 30f
6:30am 9 11 mph 1026.8mb 55f 30f
6:24am 9 11 mph 1026.8mb 55f 30f
6:18am 9 11 mph 1026.8mb 55f 30f
6:12am 9 11 mph 1026.8mb 55f 30f
6:06am 9 11 mph 1026.8mb 55f 30f
6:00am 8 13 mph 1026.9mb 55f 30f
5:54am 9 13 mph 1026.8mb 55f 30f
5:48am 10 13 mph 1026.8mb 55f 30f
5:36am 9 11 mph 1026.8mb 55f 30f
5:30am 10 13 mph 1026.8mb 55f 31f
5:24am 9 13 mph 1026.7mb 55f 31f
5:18am 10 14 mph 1026.7mb 55f 31f
5:12am 9 14 mph 1026.7mb 55f 31f
5:06am 10 13 mph 1026.7mb 55f 31f
5:00am 10 13 mph 1026.8mb 55f 31f
4:54am 10 13 mph 1026.8mb 55f 31f
4:48am 10 13 mph 1026.8mb 55f 31f
4:36am 10 14 mph 1026.8mb 55f 31f
4:30am 9 13 mph 1026.7mb 55f 31f
4:24am 10 13 mph 1026.6mb 55f 31f
4:18am 10 14 mph 1026.5mb 55f 31f
4:12am 10 13 mph 1026.5mb 55f 31f
4:06am 10 13 mph 1026.5mb 55f 31f
4:00am 11 14 mph 1026.5mb 54f 31f
3:54am 10 14 mph 1026.4mb 54f 31f
3:48am 10 15 mph 1026.4mb 54f 31f
3:36am 10 14 mph 1026.3mb 52f 31f
3:30am 11 14 mph 1026.3mb 51f 31f
3:24am 10 14 mph 1026.3mb 49f 31f
3:18am 11 15 mph 1026.3mb 47f 31f
3:12am 11 14 mph 1026.3mb 46f 31f
3:06am 10 15 mph 1026.3mb 45f 31f
3:00am 11 14 mph 1026.4mb 45f 31f
2:54am 11 14 mph 1026.5mb 45f 31f
2:48am 10 14 mph 1026.5mb 46f 31f
2:36am 11 13 mph 1026.6mb 45f 32f
2:30am 11 13 mph 1026.6mb 45f 32f
2:24am 9 13 mph 1026.7mb 44f 32f
2:18am 8 13 mph 1026.7mb 44f 32f
2:12am 8 10 mph 1026.7mb 43f 32f
2:06am 7 10 mph 1026.7mb 43f 33f
2:00am 8 10 mph 1026.7mb 44f 32f
1:54am 6 11 mph 1026.7mb 44f 33f
1:48am 10 14 mph 1026.6mb 44f 33f
1:36am 11 14 mph 1026.6mb 44f 33f
1:30am 11 15 mph 1026.5mb 44f 33f
1:24am 10 14 mph 1026.5mb 44f 33f
1:18am 9 13 mph 1026.5mb 44f 33f
1:12am 10 14 mph 1026.6mb 44f 33f
1:06am 10 13 mph 1026.7mb 44f 33f
1:00am 10 14 mph 1026.8mb 44f 33f
12:54am 9 14 mph 1026.9mb 44f 34f
12:48am 10 15 mph 1026.8mb 44f 34f
12:36am 11 17 mph 1026.8mb 45f 33f
12:30am 11 16 mph 1026.8mb 46f 34f
12:24am 13 16 mph 1026.8mb 47f 34f
12:18am 11 15 mph 1026.8mb 48f 33f
12:12am 11 16 mph 1026.8mb 49f 34f
12:06am 11 14 mph 1026.8mb 49f 34f
12:00am 11 14 mph 1026.8mb 49f 34f
Sun 11/16 11:54pm 13 14 mph 1026.9mb 50f 34f
11:48pm 11 14 mph 1026.9mb 50f 34f
11:36pm 11 15 mph 1026.8mb 52f 33f
11:30pm 10 14 mph 1026.8mb 53f 33f
11:24pm 11 15 mph 1026.8mb 55f 33f
11:18pm 11 14 mph 1026.8mb 55f 33f
11:12pm 11 14 mph 1026.8mb 55f 33f
11:06pm 11 14 mph 1026.8mb 55f 33f
11:00pm 10 14 mph 1026.7mb 55f 33f
10:54pm 11 14 mph 1026.8mb 55f 33f
10:48pm 13 15 mph 1026.8mb 55f 33f
10:36pm 11 15 mph 1027mb 55f 34f
10:30pm 13 15 mph 1027mb 55f 34f
10:24pm 11 15 mph 1027.1mb 55f 34f
10:18pm 10 14 mph 1027.1mb 55f 34f
10:12pm 11 14 mph 1027.2mb 55f 34f
10:06pm 11 15 mph 1027.3mb 55f 34f
10:00pm 11 14 mph 1027.4mb 55f 34f
9:54pm 10 14 mph 1027.4mb 55f 34f
9:48pm 10 14 mph 1027.5mb 55f 34f
9:36pm 10 14 mph 1027.5mb 55f 34f
9:30pm 10 14 mph 1027.5mb 55f 34f
9:24pm 10 14 mph 1027.6mb 55f 35f